TimeEDT,TemperatureF,Dew PointF,Humidity,Sea Level PressureIn,VisibilityMPH,Wind Direction,Wind SpeedMPH,Gust SpeedMPH,PrecipitationIn,Events,Conditions,WindDirDegrees,DateUTC
12:15 AM,68.9,61.7,78,30.16,10.0,SSE,3.5,-,N/A,,Clear,150,2013-04-18 04:15:00
12:35 AM,67.5,61.5,81,30.16,10.0,SE,3.5,-,N/A,,Clear,130,2013-04-18 04:35:00
12:55 AM,66.6,61.2,83,30.16,10.0,SE,3.5,-,N/A,,Clear,140,2013-04-18 04:55:00
1:15 AM,66.2,60.8,83,30.16,10.0,SE,3.5,-,N/A,,Clear,130,2013-04-18 05:15:00
1:35 AM,64.4,60.1,86,30.15,10.0,ESE,3.5,-,N/A,,Clear,120,2013-04-18 05:35:00
1:55 AM,64.4,60.6,88,30.15,10.0,Calm,Calm,-,N/A,,Clear,0,2013-04-18 05:55:00
2:15 AM,65.3,60.6,85,30.15,10.0,Calm,Calm,-,N/A,,Clear,0,2013-04-18 06:15:00
2:35 AM,64.2,60.4,87,30.15,10.0,SE,3.5,-,N/A,,Clear,140,2013-04-18 06:35:00
2:55 AM,64.0,60.4,88,30.13,10.0,SE,3.5,-,N/A,,Clear,140,2013-04-18 06:55:00
3:15 AM,63.5,60.1,89,30.13,10.0,Calm,Calm,-,N/A,,Clear,0,2013-04-18 07:15:00
3:35 AM,63.5,60.1,89,30.13,10.0,Calm,Calm,-,N/A,,Clear,0,2013-04-18 07:35:00
3:55 AM,63.5,59.9,88,30.13,10.0,Calm,Calm,-,N/A,,Clear,0,2013-04-18 07:55:00
4:15 AM,61.2,59.5,94,30.13,10.0,Calm,Calm,-,N/A,,Clear,0,2013-04-18 08:15:00
4:35 AM,60.8,59.4,95,30.13,10.0,Calm,Calm,-,N/A,,Clear,0,2013-04-18 08:35:00
4:55 AM,59.2,59.2,100,30.14,10.0,Calm,Calm,-,N/A,,Clear,0,2013-04-18 08:55:00
5:15 AM,58.3,58.3,100,30.15,10.0,Calm,Calm,-,N/A,,Clear,0,2013-04-18 09:15:00
5:35 AM,57.7,57.7,100,30.16,10.0,Calm,Calm,-,N/A,,Clear,0,2013-04-18 09:35:00
5:55 AM,57.6,57.6,100,30.16,10.0,Calm,Calm,-,N/A,,Clear,0,2013-04-18 09:55:00
6:15 AM,55.8,55.8,100,30.17,7.0,Calm,Calm,-,N/A,,Clear,0,2013-04-18 10:15:00
6:35 AM,56.3,56.3,100,30.16,10.0,Calm,Calm,-,N/A,,Clear,0,2013-04-18 10:35:00
7:15 AM,56.5,56.5,100,30.16,7.0,Calm,Calm,-,N/A,,Clear,0,2013-04-18 11:15:00
7:35 AM,56.5,56.5,100,30.17,7.0,Calm,Calm,-,N/A,,Clear,0,2013-04-18 11:35:00
7:55 AM,58.3,58.3,100,30.17,10.0,Calm,Calm,-,N/A,,Scattered Clouds,0,2013-04-18 11:55:00
8:15 AM,60.6,60.6,100,30.17,10.0,East,3.5,-,N/A,,Mostly Cloudy,80,2013-04-18 12:15:00
8:35 AM,62.6,62.6,100,30.17,10.0,Calm,Calm,-,N/A,,Overcast,0,2013-04-18 12:35:00
8:55 AM,63.7,63.7,100,30.17,10.0,ESE,4.6,-,N/A,,Overcast,110,2013-04-18 12:55:00
9:15 AM,64.8,64.8,100,30.17,7.0,Calm,Calm,-,N/A,,Overcast,0,2013-04-18 13:15:00
9:35 AM,66.2,65.8,99,30.17,10.0,SSE,3.5,-,N/A,,Overcast,150,2013-04-18 13:35:00
9:55 AM,67.1,66.2,97,30.17,10.0,Calm,Calm,-,N/A,,Overcast,0,2013-04-18 13:55:00
10:15 AM,69.3,66.4,91,30.17,10.0,SE,4.6,-,N/A,,Scattered Clouds,130,2013-04-18 14:15:00
10:35 AM,70.5,67.1,89,30.17,10.0,SSE,3.5,-,N/A,,Scattered Clouds,150,2013-04-18 14:35:00
10:55 AM,73.4,66.6,79,30.17,10.0,South,5.8,-,N/A,,Scattered Clouds,190,2013-04-18 14:55:00
11:15 AM,73.4,66.0,78,30.17,10.0,SSE,8.1,-,N/A,,Mostly Cloudy,160,2013-04-18 15:15:00
11:35 AM,75.2,66.0,73,30.16,10.0,SSE,6.9,-,N/A,,Mostly Cloudy,160,2013-04-18 15:35:00
11:55 AM,76.3,65.8,70,30.16,10.0,SE,9.2,-,N/A,,Scattered Clouds,140,2013-04-18 15:55:00
12:15 PM,76.8,65.8,69,30.15,10.0,SE,4.6,-,N/A,,Scattered Clouds,130,2013-04-18 16:15:00
12:35 PM,77.9,65.7,66,30.14,10.0,SSE,9.2,-,N/A,,Scattered Clouds,150,2013-04-18 16:35:00
12:55 PM,78.4,65.1,63,30.13,10.0,SSE,4.6,-,N/A,,Scattered Clouds,150,2013-04-18 16:55:00
1:15 PM,79.3,65.1,62,30.13,10.0,SSE,8.1,-,N/A,,Scattered Clouds,160,2013-04-18 17:15:00
1:35 PM,77.7,64.6,64,30.12,10.0,South,5.8,-,N/A,,Mostly Cloudy,170,2013-04-18 17:35:00
1:55 PM,77.4,65.3,66,30.11,10.0,South,5.8,-,N/A,,Overcast,180,2013-04-18 17:55:00
2:15 PM,79.5,66.0,63,30.11,10.0,ESE,8.1,-,N/A,,Mostly Cloudy,120,2013-04-18 18:15:00
2:35 PM,79.0,65.5,63,30.10,10.0,SSE,10.4,-,N/A,,Mostly Cloudy,150,2013-04-18 18:35:00
2:55 PM,76.1,65.8,70,30.11,10.0,South,10.4,17.3,N/A,,Overcast,170,2013-04-18 18:55:00
3:15 PM,78.1,65.5,65,30.11,10.0,South,6.9,17.3,N/A,,Mostly Cloudy,170,2013-04-18 19:15:00
3:35 PM,77.2,64.2,64,30.10,10.0,South,9.2,19.6,N/A,,Mostly Cloudy,170,2013-04-18 19:35:00
3:55 PM,76.1,63.7,65,30.09,10.0,South,8.1,-,N/A,,Mostly Cloudy,170,2013-04-18 19:55:00
4:35 PM,79.7,63.1,57,30.06,10.0,SSE,12.7,17.3,N/A,,Mostly Cloudy,160,2013-04-18 20:35:00
4:55 PM,79.3,62.6,56,30.05,10.0,SSE,9.2,-,N/A,,Clear,150,2013-04-18 20:55:00
5:15 PM,80.1,63.3,56,30.04,10.0,SSE,10.4,16.1,N/A,,Clear,150,2013-04-18 21:15:00
5:35 PM,80.1,63.1,56,30.03,10.0,SSE,8.1,17.3,N/A,,Clear,150,2013-04-18 21:35:00
5:55 PM,80.1,63.9,58,30.03,10.0,South,6.9,-,N/A,,Clear,180,2013-04-18 21:55:00
6:15 PM,80.8,64.2,57,30.03,10.0,South,9.2,-,N/A,,Scattered Clouds,170,2013-04-18 22:15:00
6:35 PM,78.6,64.2,61,30.03,10.0,South,5.8,-,N/A,,Clear,180,2013-04-18 22:35:00
6:55 PM,78.3,64.8,63,30.02,10.0,SSE,6.9,-,N/A,,Scattered Clouds,160,2013-04-18 22:55:00
7:15 PM,77.9,65.5,65,30.03,10.0,SSE,11.5,19.6,N/A,,Scattered Clouds,160,2013-04-18 23:15:00
7:35 PM,76.3,64.4,67,30.03,10.0,SSE,8.1,-,N/A,,Scattered Clouds,160,2013-04-18 23:35:00
7:55 PM,74.8,64.4,70,30.03,10.0,SSE,5.8,-,N/A,,Clear,160,2013-04-18 23:55:00
8:15 PM,74.3,64.6,72,30.03,10.0,SSE,6.9,-,N/A,,Clear,160,2013-04-19 00:15:00
8:35 PM,73.8,64.8,73,30.04,10.0,SSE,9.2,16.1,N/A,,Scattered Clouds,150,2013-04-19 00:35:00
8:55 PM,73.0,64.8,75,30.04,10.0,SSE,5.8,-,N/A,,Clear,150,2013-04-19 00:55:00
9:15 PM,72.5,64.6,76,30.05,10.0,SSE,6.9,-,N/A,,Clear,150,2013-04-19 01:15:00
9:35 PM,71.8,64.8,78,30.05,10.0,SSE,6.9,-,N/A,,Clear,150,2013-04-19 01:35:00
10:55 PM,70.3,64.9,83,30.04,10.0,SE,8.1,-,N/A,,Clear,140,2013-04-19 02:55:00
11:35 PM,69.8,65.3,86,30.03,10.0,SSE,6.9,16.1,N/A,,Clear,150,2013-04-19 03:35:00
11:55 PM,69.1,65.3,88,30.03,10.0,SSE,10.4,17.3,N/A,,Clear,150,2013-04-19 03:55:00